This demonstration page uses our WeatherBlox Daily Observations layout. Learn more.

38.89511, -77.03637

Hourly Observations for April 9, 2017

Temp ( °F °C ) Dew Point ( °F °C ) Humidity (%) Winds ( mph kmh ) Pressure ( in mb ) Visibility ( mi km ) Precip ( " mm )
12:52 am 00:52 Clear 47 8.3 33 0.6 59 59 SSW 6 9 30.06 1018 10 16.09344 0 0
1:52 am 01:52 Partly Cloudy 47 8.3 36 2.2 66 66 SW 5 7 30.06 1018 10 16.09344 0 0
2:52 am 02:52 Mostly Clear 45 7.2 34 1.1 66 66 SSW 3 6 30.09 1019 10 16.09344 0 0
3:52 am 03:52 Clear 47 8.3 33 0.6 59 59 SSW 3 6 30.09 1019 10 16.09344 0 0
4:52 am 04:52 Mostly Clear 44 6.7 34 1.1 68 68 SSW 5 7 30.12 1020 10 16.09344 0 0
5:52 am 05:52 Mostly Clear 45 7.2 34 1.1 66 66 Calm 30.15 1021 10 16.09344 0 0
6:52 am 06:52 Mostly Sunny 45 7.2 34 1.1 66 66 Calm 30.15 1021 10 16.09344 0 0
7:52 am 07:52 Mostly Sunny 48 8.9 37 2.8 66 66 Calm 30.18 1022 10 16.09344 0 0
8:52 am 08:52 Mostly Sunny 50 10 39 3.9 66 66 SSE 3 6 30.21 1023 10 16.09344 0 0
9:52 am 09:52 Mostly Sunny 55 12.8 40 4.4 57 57 SSE 3 6 30.21 1023 10 16.09344 0 0
10:52 am 10:52 Mostly Sunny 61 16.1 31 -0.6 32 32 SSE 6 9 30.21 1023 10 16.09344 0 0
11:52 am 11:52 Mostly Sunny 64 17.8 33 0.6 32 32 SSE 9 15 30.21 1023 10 16.09344 0 0
12:52 pm 12:52 Partly Cloudy 66 18.9 37 2.8 34 34 S 13 20 30.18 1022 10 16.09344 0 0
1:52 pm 13:52 Partly Cloudy 68 20 37 2.8 32 32 SSE 12 19 30.18 1022 10 16.09344 0 0
2:52 pm 14:52 Mostly Sunny 69 20.6 37 2.8 31 31 S 13 20 30.15 1021 10 16.09344 0 0
3:52 pm 15:52 Partly Cloudy 70 21.1 35 1.7 28 28 S 10 17 30.12 1020 10 16.09344 0 0
4:52 pm 16:52 Partly Cloudy 71 21.7 36 2.2 28 28 S 12 19 30.12 1020 10 16.09344 0 0
5:52 pm 17:52 Partly Cloudy 68 20 39 3.9 35 35 S 14 22 30.12 1020 10 16.09344 0 0
6:52 pm 18:52 Mostly Cloudy 67 19.4 40 4.4 37 37 S 9 15 30.12 1020 10 16.09344 0 0
7:52 pm 19:52 Partly Cloudy 63 17.2 42 5.6 47 47 S 10 17 30.12 1020 10 16.09344 0 0
8:52 pm 20:52 Partly Cloudy 61 16.1 41 5 48 48 SSE 8 13 30.15 1021 10 16.09344 0 0
9:52 pm 21:52 Clear 59 15 40 4.4 49 49 S 7 11 30.18 1022 10 16.09344 0 0
10:52 pm 22:52 Mostly Cloudy 57 13.9 41 5 55 55 S 7 11 30.18 1022 10 16.09344 0 0
11:52 pm 23:52 Mostly Cloudy 57 13.9 39 3.9 51 51 S 12 19 30.15 1021 10 16.09344 0 0

Powered by AerisWeather